Weather History for Tinker AFB, OK

Change the Weather History Date:

Sunday, October 14, 2012

  Actual Average Record
Temperature  
Mean Temperature 68 °F -  
Max Temperature 77 °F 69 °F 86 °F (1999)
Min Temperature 58 °F 50 °F 41 °F (2002)
Cooling Degree Days 2    
Growing Degree Days 18 (Base 50)    
Moisture  
Dew Point 45 °F    
Average Humidity 47    
Maximum Humidity 70    
Minimum Humidity 27    
Precipitation  
Precipitation 0.01 in - - ()
Sea Level Pressure  
Sea Level Pressure 29.98 in    
Wind  
Wind Speed 10 mph (NW)    
Max Wind Speed 18 mph    
Max Gust Speed 26 mph    
Visibility 9 miles    
Events      
Averages and records for this station are not official NWS values.
T = Trace of Precipitation, MM = Missing Value Source: NWS Daily Summary

Daily Weather History Graph

Daily Weather History Graph

Search for Another Location

Airport:

Trip Planner

Search our weather history database for the weather conditions in past years. The results will help you decide how hot, cold, wet, or windy it might be!

Date:

Astronomy

Oct. 14, 2012 Rise Set
Actual Time 7:35 AM CDT 6:54 PM CDT
Civil Twilight 7:09 AM CDT 7:20 PM CDT
Nautical Twilight 6:40 AM CDT 7:49 PM CDT
Astronomical Twilight 6:10 AM CDT 8:19 PM CDT
Moon 6:36 AM CDT (10/14) 6:16 PM CDT (10/14)
Length of Visible Light 12h 10m
Length of Day
11h 19m
Waning Crescent, 1% of the Moon is Illuminated
Oct 14
Waning Crescent
Oct 15
New
Oct 21
First Quarter
Oct 29
Full
Nov 6
Last Quarter

Hourly Weather History & Observations

Time (CDT) Temp. Dew Point Humidity Pressure Visibility Wind Dir Wind Speed Gust Speed Precip Events Conditions
12:55 AM 63.1 °F 47.7 °F 57% 29.75 in 10.0 mi WNW 11.5 mph 19.6 mph 0.01 in   Clear
1:55 AM 61.7 °F 46.8 °F 58% 29.78 in 10.0 mi WNW 8.1 mph - N/A   Clear
2:55 AM 61.5 °F 48.4 °F 62% 29.79 in 10.0 mi West 11.5 mph - N/A   Clear
3:55 AM 62.1 °F 48.6 °F 61% 29.80 in 10.0 mi West 13.8 mph 18.4 mph N/A   Clear
4:55 AM 61.2 °F 48.0 °F 62% 29.82 in 10.0 mi West 9.2 mph - N/A   Clear
5:55 AM 58.6 °F 48.9 °F 70% 29.86 in 10.0 mi West 6.9 mph - N/A   Clear
6:55 AM 59.7 °F 48.7 °F 67% 29.88 in 10.0 mi WNW 9.2 mph - N/A   Clear
7:55 AM 59.4 °F 48.0 °F 66% 29.92 in 10.0 mi NW 10.4 mph - N/A   Clear
8:55 AM 61.9 °F 47.7 °F 60% 29.96 in 10.0 mi NW 10.4 mph - N/A   Clear
9:55 AM 64.6 °F 47.1 °F 53% 30.01 in 10.0 mi NNW 17.3 mph 25.3 mph N/A   Clear
10:55 AM 67.5 °F 46.9 °F 48% 30.05 in 10.0 mi NNW 18.4 mph 26.5 mph N/A   Clear
11:55 AM 70.9 °F 46.2 °F 41% 30.07 in 10.0 mi NNW 15.0 mph - N/A   Clear
12:55 PM 74.3 °F 43.5 °F 33% 30.07 in 10.0 mi North 12.7 mph - N/A   Clear
1:55 PM 76.1 °F 43.9 °F 32% 30.06 in 10.0 mi NW 15.0 mph 20.7 mph N/A   Clear
2:23 PM 75.2 °F 42.8 °F 31% 30.06 in 2.5 mi NW 9.2 mph - N/A   Haze
2:27 PM 77.0 °F 42.8 °F 29% 30.06 in 3.0 mi NW 10.4 mph - N/A   Haze
2:55 PM 76.5 °F 42.6 °F 30% 30.05 in 10.0 mi WNW 10.4 mph - N/A   Clear
3:55 PM 77.7 °F 41.2 °F 27% 30.04 in 10.0 mi North 9.2 mph - N/A   Clear
4:55 PM 77.5 °F 41.5 °F 28% 30.04 in 10.0 mi NW 4.6 mph - N/A   Clear
5:55 PM 76.3 °F 41.5 °F 29% 30.05 in 10.0 mi NW 12.7 mph - N/A   Clear
6:55 PM 70.7 °F 43.9 °F 38% 30.06 in 10.0 mi NW 4.6 mph - N/A   Clear
7:55 PM 69.1 °F 44.1 °F 40% 30.06 in 10.0 mi West 4.6 mph - N/A   Clear
8:55 PM 66.0 °F 46.6 °F 49% 30.07 in 10.0 mi Calm Calm - N/A   Clear
9:55 PM 66.7 °F 45.0 °F 45% 30.08 in 10.0 mi Calm Calm - N/A   Clear
10:55 PM 65.5 °F 44.6 °F 47% 30.09 in 10.0 mi Calm Calm - N/A   Clear
11:55 PM 62.8 °F 45.9 °F 54% 30.10 in 10.0 mi NNW 3.5 mph - N/A   Clear